When you browse on this site, cookies collect data to enhance your experience and personalize the content and advertising you see.
Visit our Privacy Policy to learn more. By continuing to use the site, you agree to this use of cookies and data.
  • In Portugal
  • List of Countries
  • For 7 days
  • Water Temperature
  • Satellite Maps
  • Weather Map
  • Weather Widgets
  • user-avatar
    Login

    Hourly Weather Maryna

    Today, 24 March, Sunday

    Time Temperature Precipitation Wind Pressure Humidity
    00:00 +5°C° 0 mm 5 mps 749 mmHg 86%
    01:00 +3°C° 0 mm 5 mps 749 mmHg 86%
    02:00 +2°C° 0 mm 5 mps 749 mmHg 86%
    03:00 +1°C° 0 mm 5 mps 749 mmHg 84%
    04:00 +1°C° 0 mm 4 mps 749 mmHg 82%
    05:00 0°C° 0 mm 4 mps 749 mmHg 79%
    06:00 0°C° 0 mm 4 mps 749 mmHg 79%
    07:00 +1°C° 0 mm 5 mps 749 mmHg 78%
    08:00 +1°C° 0 mm 5 mps 749 mmHg 77%
    09:00 +2°C° 0 mm 5 mps 749 mmHg 72%
    10:00 +3°C° 0 mm 5 mps 749 mmHg 67%
    11:00 +5°C° 0 mm 5 mps 749 mmHg 62%
    12:00 +6°C° 0 mm 5 mps 749 mmHg 58%
    13:00 +6°C° 0 mm 5 mps 749 mmHg 54%
    14:00 +7°C° 0 mm 5 mps 749 mmHg 51%
    15:00 +7°C° 0 mm 5 mps 748 mmHg 51%
    16:00 +6°C° 0 mm 5 mps 748 mmHg 50%
    17:00 +6°C° 0 mm 4 mps 748 mmHg 50%
    18:00 +5°C° 0 mm 4 mps 747 mmHg 55%
    19:00 +4°C° 0 mm 3 mps 747 mmHg 61%
    20:00 +4°C° 0 mm 2 mps 747 mmHg 66%
    21:00 +3°C° 0 mm 2 mps 747 mmHg 69%
    22:00 +3°C° 0 mm 2 mps 746 mmHg 73%
    23:00 +2°C° 0 mm 2 mps 746 mmHg 77%

    Tomorrow, 25 March, Monday

    Time Temperature Precipitation Wind Pressure Humidity
    00:00 +2°C° 0 mm 2 mps 745 mmHg 77%
    01:00 +1°C° 0 mm 2 mps 745 mmHg 78%
    02:00 +1°C° 0 mm 2 mps 744 mmHg 79%
    03:00 +1°C° 0 mm 2 mps 744 mmHg 80%
    04:00 +1°C° 0 mm 2 mps 743 mmHg 81%
    05:00 -1°C° 0 mm 2 mps 743 mmHg 82%
    06:00 +1°C° 0 mm 2 mps 742 mmHg 80%
    07:00 +1°C° 0 mm 2 mps 742 mmHg 77%
    08:00 +2°C° 0 mm 2 mps 742 mmHg 75%
    09:00 +3°C° 0 mm 2 mps 742 mmHg 67%
    10:00 +3°C° 0 mm 3 mps 741 mmHg 60%
    11:00 +5°C° 0 mm 3 mps 741 mmHg 53%
    12:00 +5°C° 0 mm 3 mps 741 mmHg 49%
    13:00 +7°C° 0 mm 3 mps 741 mmHg 46%
    14:00 +7°C° 0 mm 2 mps 740 mmHg 42%
    15:00 +7°C° 0.1 mm 3 mps 740 mmHg 46%
    16:00 +7°C° 0.1 mm 3 mps 740 mmHg 50%
    17:00 +5°C° 0.1 mm 3 mps 740 mmHg 54%
    18:00 +4°C° 0.1 mm 3 mps 741 mmHg 61%
    19:00 +3°C° 0.1 mm 3 mps 741 mmHg 68%
    20:00 +2°C° 0.1 mm 3 mps 741 mmHg 75%
    21:00 +2°C° 0 mm 3 mps 742 mmHg 81%
    22:00 0°C° 0 mm 4 mps 742 mmHg 86%
    23:00 0°C° 0 mm 4 mps 743 mmHg 92%

    Day after tomorrow, 26 March, Tuesday

    Time Temperature Precipitation Wind Pressure Humidity
    00:00 0°C° 0 mm 5 mps 744 mmHg 90%
    01:00 0°C° 0 mm 5 mps 744 mmHg 88%
    02:00 0°C° 0 mm 5 mps 745 mmHg 86%
    03:00 -1°C° 0 mm 5 mps 745 mmHg 83%
    04:00 -4°C° 0 mm 5 mps 745 mmHg 81%
    05:00 -4°C° 0 mm 4 mps 746 mmHg 79%
    06:00 -4°C° 0 mm 5 mps 746 mmHg 75%
    07:00 -2°C° 0 mm 5 mps 747 mmHg 72%
    08:00 -2°C° 0 mm 5 mps 747 mmHg 68%
    09:00 -1°C° 0 mm 6 mps 747 mmHg 63%
    10:00 0°C° 0 mm 7 mps 747 mmHg 57%
    11:00 +1°C° 0 mm 8 mps 747 mmHg 52%
    12:00 +2°C° 0.1 mm 8 mps 747 mmHg 50%
    13:00 +2°C° 0.1 mm 9 mps 747 mmHg 48%
    14:00 +2°C° 0.1 mm 9 mps 747 mmHg 46%
    15:00 +2°C° 0 mm 9 mps 747 mmHg 46%
    16:00 +2°C° 0 mm 8 mps 747 mmHg 46%
    17:00 +1°C° 0 mm 8 mps 747 mmHg 46%
    18:00 0°C° 0 mm 7 mps 747 mmHg 53%
    19:00 -1°C° 0 mm 6 mps 748 mmHg 60%
    20:00 -2°C° 0 mm 4 mps 748 mmHg 67%
    21:00 -2°C° 0 mm 4 mps 749 mmHg 64%
    22:00 -3°C° 0 mm 4 mps 749 mmHg 61%
    23:00 -4°C° 0 mm 3 mps 750 mmHg 58%

    27 March, Wednesday

    Time Temperature Precipitation Wind Pressure Humidity
    00:00 -4°C° 0 mm 3 mps 750 mmHg 60%
    01:00 -5°C° 0 mm 3 mps 751 mmHg 61%
    02:00 -4°C° 0 mm 2 mps 751 mmHg 62%
    03:00 -4°C° 0 mm 2 mps 751 mmHg 61%
    04:00 -4°C° 0 mm 2 mps 751 mmHg 61%
    05:00 -3°C° 0 mm 2 mps 752 mmHg 60%
    06:00 -3°C° 0 mm 2 mps 752 mmHg 58%
    07:00 -2°C° 0 mm 2 mps 752 mmHg 56%
    08:00 -1°C° 0 mm 2 mps 752 mmHg 54%
    09:00 0°C° 0 mm 3 mps 752 mmHg 54%
    10:00 +2°C° 0 mm 3 mps 752 mmHg 54%
    11:00 +3°C° 0 mm 4 mps 752 mmHg 54%
    12:00 +3°C° 0.2 mm 4 mps 752 mmHg 57%
    13:00 +3°C° 0.2 mm 5 mps 751 mmHg 60%
    14:00 +3°C° 0.2 mm 5 mps 751 mmHg 63%
    15:00 +3°C° 0.1 mm 5 mps 751 mmHg 66%
    16:00 +4°C° 0.1 mm 4 mps 751 mmHg 70%
    17:00 +4°C° 0.1 mm 4 mps 751 mmHg 74%
    18:00 +4°C° 0 mm 3 mps 751 mmHg 80%
    19:00 +3°C° 0 mm 3 mps 751 mmHg 87%
    20:00 +3°C° 0 mm 3 mps 751 mmHg 93%
    21:00 +2°C° 0 mm 3 mps 752 mmHg 94%
    22:00 +3°C° 0 mm 2 mps 752 mmHg 96%
    23:00 +3°C° 0 mm 2 mps 752 mmHg 97%

    28 March, Thursday

    Time Temperature Precipitation Wind Pressure Humidity
    00:00 +3°C° 0 mm 2 mps 752 mmHg 97%
    01:00 +3°C° 0 mm 2 mps 752 mmHg 97%
    02:00 +3°C° 0 mm 2 mps 753 mmHg 98%
    03:00 +3°C° 0 mm 2 mps 753 mmHg 98%
    04:00 +3°C° 0 mm 2 mps 753 mmHg 98%
    05:00 +3°C° 0 mm 2 mps 753 mmHg 98%
    06:00 +3°C° 0 mm 2 mps 753 mmHg 96%
    07:00 +3°C° 0 mm 2 mps 754 mmHg 95%
    08:00 +3°C° 0 mm 2 mps 754 mmHg 93%
    09:00 +3°C° 0 mm 2 mps 754 mmHg 90%
    10:00 +4°C° 0 mm 2 mps 755 mmHg 86%
    11:00 +4°C° 0 mm 2 mps 755 mmHg 83%
    12:00 +5°C° 0 mm 2 mps 755 mmHg 79%
    13:00 +6°C° 0 mm 2 mps 755 mmHg 74%
    14:00 +7°C° 0 mm 2 mps 755 mmHg 70%
    15:00 +8°C° 0 mm 2 mps 755 mmHg 68%
    16:00 +8°C° 0 mm 2 mps 755 mmHg 67%
    17:00 +9°C° 0 mm 2 mps 755 mmHg 65%
    18:00 +7°C° 0 mm 2 mps 755 mmHg 72%
    19:00 +6°C° 0 mm 2 mps 755 mmHg 79%
    20:00 +6°C° 0 mm 1 mps 755 mmHg 86%
    21:00 +5°C° 0 mm 1 mps 755 mmHg 87%
    22:00 +4°C° 0 mm 1 mps 755 mmHg 88%
    23:00 +3°C° 0 mm 2 mps 755 mmHg 90%

    29 March, Friday

    Time Temperature Precipitation Wind Pressure Humidity
    00:00 +2°C° 0 mm 2 mps 755 mmHg 89%
    01:00 +2°C° 0 mm 2 mps 755 mmHg 88%
    02:00 +1°C° 0 mm 2 mps 755 mmHg 87%
    03:00 +1°C° 0 mm 2 mps 755 mmHg 87%
    04:00 +1°C° 0 mm 2 mps 755 mmHg 87%
    05:00 +1°C° 0 mm 2 mps 755 mmHg 87%
    06:00 +2°C° 0 mm 2 mps 755 mmHg 84%
    07:00 +3°C° 0 mm 2 mps 755 mmHg 80%
    08:00 +3°C° 0 mm 2 mps 756 mmHg 77%
    09:00 +4°C° 0 mm 3 mps 755 mmHg 72%
    10:00 +7°C° 0 mm 3 mps 755 mmHg 67%
    11:00 +9°C° 0 mm 3 mps 755 mmHg 61%
    12:00 +10°C° 0 mm 4 mps 755 mmHg 59%
    13:00 +10°C° 0 mm 5 mps 754 mmHg 57%
    14:00 +12°C° 0 mm 5 mps 754 mmHg 55%
    15:00 +12°C° 0 mm 5 mps 754 mmHg 56%
    16:00 +12°C° 0 mm 5 mps 753 mmHg 58%
    17:00 +12°C° 0 mm 5 mps 753 mmHg 59%
    18:00 +10°C° 0 mm 4 mps 753 mmHg 67%
    19:00 +8°C° 0 mm 4 mps 753 mmHg 75%
    20:00 +7°C° 0 mm 3 mps 753 mmHg 83%
    21:00 +7°C° 0 mm 3 mps 753 mmHg 85%
    22:00 +7°C° 0 mm 3 mps 753 mmHg 86%
    23:00 +5°C° 0 mm 4 mps 753 mmHg 87%
    Show more